FW7086 Weather Reports


Display with metric or nautical units.
time (UTC)temp
F
wind
direction
speed
MPH
gust
MPH
rain 1hr
in
rain 24hr
in
rain mn
in
humidity
%
barometer
mb
20260903212926 89 66 3.0 4.0 0.00 0.00 0.00 56 1014.8
20260903212422 89 138 5.0 8.0 0.00 0.00 0.00 56 1014.7
20260903211922 90 59 4.0 6.0 0.00 0.00 0.00 56 1014.7
20260903211417 91 80 1.0 2.0 0.00 0.00 0.00 55 1014.5
20260903210913 91 46 0.0 0.0 0.00 0.00 0.00 55 1014.4
20260903210413 90 59 1.0 3.0 0.00 0.00 0.00 55 1014.5
20260903205908 91 90 4.0 6.0 0.00 0.00 0.00 54 1014.5
20260903205408 92 79 3.0 3.0 0.00 0.00 0.00 56 1014.5
20260903204902 92 81 1.0 2.0 0.00 0.00 0.00 55 1014.7
20260903204359 93 15 1.0 1.0 0.00 0.00 0.00 55 1014.7
20260903203854 94 185 1.0 1.0 0.00 0.00 0.00 53 1014.5
20260903203350 93 193 1.0 1.0 0.00 0.00 0.00 56 1014.7
20260903202849 92 249 3.0 3.0 0.00 0.00 0.00 56 1014.7
20260903202346 92 297 1.0 2.0 0.00 0.00 0.00 54 1014.5
20260903201845 92 9 0.0 1.0 0.00 0.00 0.00 57 1014.8
20260903201340 92 188 2.0 2.0 0.00 0.00 0.00 55 1015.0
20260903200839 90 183 2.0 2.0 0.00 0.00 0.00 57 1014.8
20260903200335 90 102 0.0 0.0 0.00 0.00 0.00 58 1015.0
20260903195829 91 141 0.0 0.0 0.00 0.00 0.00 58 1014.9
20260903195326 90 24 1.0 1.0 0.00 0.00 0.00 59 1015.0
20260903194820 89 67 2.0 3.0 0.00 0.00 0.00 60 1015.1
20260903194316 89 72 2.0 3.0 0.00 0.00 0.00 59 1015.1
20260903193812 89 91 0.0 0.0 0.00 0.00 0.00 59 1015.3
20260903193308 89 127 0.0 1.0 0.00 0.00 0.00 59 1015.3
20260903192803 89 211 2.0 3.0 0.00 0.00 0.00 58 1015.4
20260903192258 88 182 4.0 4.0 0.00 0.00 0.00 60 1015.4
20260903191754 89 351 1.0 2.0 0.00 0.00 0.00 60 1015.5
20260903191250 88 77 2.0 3.0 0.00 0.00 0.00 61 1015.6
20260903190744 88 41 0.0 0.0 0.00 0.00 0.00 63 1015.5
20260903190244 87 10 0.0 0.0 0.00 0.00 0.00 61 1015.7
20260903185739 87 193 1.0 2.0 0.00 0.00 0.00 63 1015.6
20260903185239 87 19 1.0 1.0 0.00 0.00 0.00 62 1015.7
20260903184735 86 16 1.0 2.0 0.00 0.00 0.00 63 1016.0
20260903184231 87 68 2.0 6.0 0.00 0.00 0.00 62 1015.9
20260903183727 88 358 0.0 0.0 0.00 0.00 0.00 63 1016.0
20260903183220 86 38 0.0 0.0 0.00 0.00 0.00 66 1016.2
20260903182719 85 345 1.0 1.0 0.00 0.00 0.00 66 1016.1
20260903182215 85 63 1.0 2.0 0.00 0.00 0.00 66 1016.2
20260903181713 85 25 2.0 2.0 0.00 0.00 0.00 67 1016.3
20260903181208 85 71 4.0 4.0 0.00 0.00 0.00 69 1016.2
20260903180704 85 36 1.0 1.0 0.00 0.00 0.00 69 1016.3
20260903180204 84 29 3.0 3.0 0.00 0.00 0.00 68 1016.8
20260903175703 83 345 3.0 4.0 0.00 0.00 0.00 69 1016.7
20260903175203 83 341 5.0 6.0 0.00 0.00 0.00 71 1016.9
20260903174702 83 33 4.0 6.0 0.00 0.00 0.00 71 1016.9
20260903174157 83 39 2.0 3.0 0.00 0.00 0.00 75 1016.9
20260903173652 84 317 4.0 7.0 0.00 0.00 0.00 75 1017.1
20260903173148 83 193 2.0 3.0 0.00 0.00 0.00 75 1017.1
20260903172643 84 3 2.0 3.0 0.00 0.00 0.00 73 1017.1
20260903172138 84 349 4.0 6.0 0.00 0.00 0.00 74 1017.3
20260903171638 82 343 4.0 6.0 0.00 0.00 0.00 77 1017.2
20260903171134 83 35 6.0 9.0 0.00 0.00 0.00 77 1017.3
20260903170633 83 325 7.0 9.0 0.00 0.00 0.00 76 1017.2
20260903170129 83 351 6.0 8.0 0.00 0.00 0.00 75 1017.1
20260903165626 84 339 8.0 9.0 0.00 0.00 0.00 74 1017.2
20260903165121 85 311 4.0 4.0 0.00 0.00 0.00 73 1017.3
20260903164616 85 36 5.0 8.0 0.00 0.00 0.00 73 1016.9
20260903164113 85 351 6.0 8.0 0.00 0.00 0.00 74 1017.1
20260903163612 84 358 6.0 13.0 0.00 0.00 0.00 75 1017.0
20260903163109 84 9 3.0 4.0 0.00 0.00 0.00 75 1017.3
20260903162605 84 322 10.0 14.0 0.00 0.00 0.00 74 1017.2
20260903162101 84 355 7.0 11.0 0.00 0.00 0.00 73 1017.0
20260903161555 84 325 7.0 11.0 0.00 0.00 0.00 72 1016.8
20260903161051 85 340 9.0 13.0 0.00 0.00 0.00 70 1017.1
20260903160550 87 5 14.0 19.0 0.00 0.00 0.00 69 1016.5
20260903160045 89 309 3.0 3.0 0.00 0.00 0.00 66 1016.5
20260903155544 90 25 3.0 3.0 0.00 0.00 0.00 63 1016.0
20260903155039 90 235 1.0 1.0 0.00 0.00 0.00 63 1015.6
20260903154536 91 183 1.0 2.0 0.00 0.00 0.00 62 1015.5
20260903154032 92 243 1.0 2.0 0.00 0.00 0.00 60 1015.5
20260903153526 91 146 0.0 0.0 0.00 0.00 0.00 60 1015.4
20260903153022 91 211 2.0 2.0 0.00 0.00 0.00 60 1015.4
20260903152518 91 282 4.0 6.0 0.00 0.00 0.00 60 1015.3
20260903152015 91 179 2.0 2.0 0.00 0.00 0.00 61 1015.3
20260903151513 91 149 1.0 1.0 0.00 0.00 0.00 61 1015.5
20260903151008 90 169 4.0 6.0 0.00 0.00 0.00 62 1015.3
20260903150503 91 169 2.0 3.0 0.00 0.00 0.00 61 1015.4
20260903145958 91 224 3.0 3.0 0.00 0.00 0.00 61 1015.7
20260903145453 90 191 2.0 3.0 0.00 0.00 0.00 62 1015.5
20260903144948 89 196 0.0 1.0 0.00 0.00 0.00 64 1015.3
20260903144447 89 168 5.0 6.0 0.00 0.00 0.00 63 1015.6
20260903143943 90 147 2.0 3.0 0.00 0.00 0.00 62 1015.5
20260903143439 89 158 0.0 0.0 0.00 0.00 0.00 63 1015.4
20260903142934 89 185 2.0 3.0 0.00 0.00 0.00 64 1015.4
20260903142430 88 179 0.0 1.0 0.00 0.00 0.00 65 1015.3
20260903141926 87 295 0.0 0.0 0.00 0.00 0.00 66 1015.3
20260903141422 88 168 4.0 6.0 0.00 0.00 0.00 65 1015.3
20260903140917 87 148 1.0 1.0 0.00 0.00 0.00 67 1015.3
20260903140412 87 175 1.0 2.0 0.00 0.00 0.00 66 1015.1
20260903135908 86 219 3.0 3.0 0.00 0.00 0.00 67 1015.0
20260903135403 86 188 4.0 6.0 0.00 0.00 0.00 67 1015.2
20260903134902 86 191 2.0 3.0 0.00 0.00 0.00 68 1015.2
20260903134357 86 146 6.0 7.0 0.00 0.00 0.00 68 1015.3
20260903133855 86 70 1.0 2.0 0.00 0.00 0.00 69 1015.5
20260903133352 85 166 0.0 0.0 0.00 0.00 0.00 69 1015.4
20260903132851 85 164 2.0 3.0 0.00 0.00 0.00 70 1015.2
20260903132347 85 275 0.0 1.0 0.00 0.00 0.00 71 1015.5
20260903131847 84 268 0.0 1.0 0.00 0.00 0.00 71 1015.4
20260903131347 84 232 0.0 0.0 0.00 0.00 0.00 72 1015.5
20260903130846 84 212 1.0 2.0 0.00 0.00 0.00 72 1015.4
20260903130341 83 162 2.0 2.0 0.00 0.00 0.00 73 1015.6
20260903125839 83 167 2.0 4.0 0.00 0.00 0.00 73 1015.6
20260903125335 83 196 0.0 0.0 0.00 0.00 0.00 74 1015.6
20260903124834 83 212 2.0 3.0 0.00 0.00 0.00 74 1015.4
20260903124330 82 175 2.0 2.0 0.00 0.00 0.00 75 1015.5
20260903123828 82 177 2.0 3.0 0.00 0.00 0.00 75 1015.4
20260903123323 82 202 3.0 3.0 0.00 0.00 0.00 76 1015.6
20260903122821 81 150 2.0 2.0 0.00 0.00 0.00 77 1015.7
20260903122316 81 159 2.0 3.0 0.00 0.00 0.00 77 1015.5
20260903121815 82 168 1.0 1.0 0.00 0.00 0.00 76 1015.8
20260903121311 82 176 2.0 2.0 0.00 0.00 0.00 76 1015.6
20260903120807 81 218 1.0 1.0 0.00 0.00 0.00 77 1015.6
20260903120306 81 151 2.0 2.0 0.00 0.00 0.00 77 1015.7
20260903115804 81 140 0.0 0.0 0.00 0.00 0.00 77 1015.6
20260903115300 81 158 1.0 1.0 0.00 0.00 0.00 77 1015.4
20260903114759 81 149 4.0 4.0 0.00 0.00 0.00 77 1015.6
20260903114255 81 207 1.0 2.0 0.00 0.00 0.00 77 1015.5
20260903113750 81 208 2.0 3.0 0.00 0.00 0.00 77 1015.5
20260903113246 81 201 3.0 3.0 0.00 0.00 0.00 77 1015.5
20260903112742 81 115 2.0 3.0 0.00 0.00 0.00 78 1015.4
20260903112237 81 157 3.0 3.0 0.00 0.00 0.00 78 1015.3
20260903111736 81 224 2.0 2.0 0.00 0.00 0.00 77 1015.4
20260903111231 81 210 2.0 2.0 0.00 0.00 0.00 77 1015.3
20260903110727 81 151 2.0 3.0 0.00 0.00 0.00 77 1015.3
20260903110223 81 149 2.0 3.0 0.00 0.00 0.00 77 1015.5
20260903105722 81 234 2.0 3.0 0.00 0.00 0.00 78 1015.5
20260903105218 81 231 1.0 2.0 0.00 0.00 0.00 77 1015.5
20260903104717 81 293 1.0 1.0 0.00 0.00 0.00 77 1015.3
20260903104212 81 270 3.0 3.0 0.00 0.00 0.00 77 1015.5
20260903103708 81 199 2.0 3.0 0.00 0.00 0.00 77 1015.3
20260903103204 81 189 2.0 3.0 0.00 0.00 0.00 77 1015.3
20260903102659 81 197 1.0 1.0 0.00 0.00 0.00 78 1015.3
20260903102153 81 204 2.0 3.0 0.00 0.00 0.00 78 1015.1
20260903101652 81 144 1.0 2.0 0.00 0.00 0.00 78 1015.1
20260903101148 81 265 2.0 4.0 0.00 0.00 0.00 78 1015.2
20260903100643 81 204 3.0 3.0 0.00 0.00 0.00 78 1015.2
20260903100142 81 165 2.0 2.0 0.00 0.00 0.00 78 1015.2
20260903095640 81 199 1.0 1.0 0.00 0.00 0.00 78 1015.3
20260903095140 81 189 1.0 1.0 0.00 0.00 0.00 78 1015.2
20260903094635 81 179 1.0 1.0 0.00 0.00 0.00 78 1015.2
20260903094130 81 148 1.0 1.0 0.00 0.00 0.00 79 1015.3
20260903093625 81 290 0.0 0.0 0.00 0.00 0.00 79 1015.1
20260903093121 81 227 1.0 2.0 0.00 0.00 0.00 80 1014.9
20260903092620 81 150 1.0 2.0 0.00 0.00 0.00 80 1015.3
20260903092115 81 188 1.0 1.0 0.00 0.00 0.00 81 1015.1
20260903091613 81 133 2.0 2.0 0.00 0.00 0.00 82 1015.1
20260903091108 81 157 0.0 0.0 0.00 0.00 0.00 82 1015.1
20260903090604 81 168 0.0 0.0 0.00 0.00 0.00 82 1015.0
20260903085601 81 176 1.0 1.0 0.00 0.00 0.00 81 1015.1
20260903085057 81 179 1.0 1.0 0.00 0.00 0.00 81 1014.8
20260903084555 81 152 1.0 1.0 0.00 0.00 0.00 81 1015.2
20260903084050 81 144 1.0 2.0 0.00 0.00 0.00 80 1015.0
20260903083546 82 161 0.0 0.0 0.00 0.00 0.00 80 1015.1
20260903083046 82 165 2.0 2.0 0.00 0.00 0.00 79 1015.0
20260903082540 82 189 1.0 1.0 0.00 0.00 0.00 79 1015.3
20260903082035 82 160 1.0 1.0 0.00 0.00 0.00 79 1015.2
20260903081531 82 166 3.0 3.0 0.00 0.00 0.00 79 1015.2
20260903081027 81 159 0.0 0.0 0.00 0.00 0.00 80 1015.1
20260903080523 82 161 0.0 1.0 0.00 0.00 0.00 80 1015.0
20260903080019 82 225 1.0 1.0 0.00 0.00 0.00 80 1014.9
20260903075514 82 146 0.0 0.0 0.00 0.00 0.00 81 1015.0
20260903075009 81 191 0.0 0.0 0.00 0.00 0.00 81 1015.0
20260903074508 82 198 0.0 1.0 0.00 0.00 0.00 81 1015.1
20260903074003 82 165 0.0 0.0 0.00 0.00 0.00 81 1015.0
20260903073458 82 202 0.0 0.0 0.00 0.00 0.00 80 1015.2
20260903072954 82 183 1.0 1.0 0.00 0.00 0.00 80 1015.0
20260903072450 82 197 2.0 2.0 0.00 0.00 0.00 80 1015.0
20260903071947 82 137 0.0 0.0 0.00 0.00 0.00 81 1014.9
20260903071443 82 163 0.0 0.0 0.00 0.00 0.00 81 1015.1
20260903070938 82 168 2.0 2.0 0.00 0.00 0.00 81 1015.0
20260903070437 82 163 0.0 0.0 0.00 0.00 0.00 82 1014.9
20260903065932 82 160 3.0 3.0 0.00 0.00 0.00 82 1015.0
20260903065432 82 159 0.0 0.0 0.00 0.00 0.00 83 1015.1
20260903064932 82 170 0.0 1.0 0.00 0.00 0.00 82 1014.9
20260903064426 82 152 0.0 0.0 0.00 0.00 0.00 82 1015.2
20260903063922 82 158 0.0 0.0 0.00 0.00 0.00 81 1015.1
20260903063418 82 152 1.0 1.0 0.00 0.00 0.00 81 1015.2
20260903062913 82 239 0.0 1.0 0.00 0.00 0.00 81 1015.2
20260903062413 83 226 1.0 1.0 0.00 0.00 0.00 80 1015.1
20260903061909 83 153 0.0 1.0 0.00 0.00 0.00 80 1015.1
20260903061408 83 138 1.0 1.0 0.00 0.00 0.00 79 1015.2
20260903060904 83 162 0.0 0.0 0.00 0.00 0.00 79 1015.3
20260903060404 83 163 0.0 0.0 0.00 0.00 0.00 79 1015.3
20260903055902 83 151 0.0 0.0 0.00 0.00 0.00 80 1015.1
20260903055400 83 136 0.0 0.0 0.00 0.00 0.00 80 1015.5
20260903054856 83 136 0.0 0.0 0.00 0.00 0.00 79 1015.3
20260903054355 83 165 0.0 0.0 0.00 0.00 0.00 79 1015.1
20260903053852 83 162 0.0 0.0 0.00 0.00 0.00 79 1015.3
20260903053346 83 166 0.0 0.0 0.00 0.00 0.00 79 1015.0
20260903052843 83 153 0.0 0.0 0.00 0.00 0.00 79 1015.1
20260903052338 83 188 0.0 0.0 0.00 0.00 0.00 79 1015.0
20260903051834 83 164 0.0 1.0 0.00 0.00 0.00 79 1015.1
20260903051329 83 231 1.0 1.0 0.00 0.00 0.00 79 1014.9
20260903050825 84 164 1.0 1.0 0.00 0.00 0.00 78 1015.0
20260903050323 84 189 0.0 0.0 0.00 0.00 0.00 78 1015.1
20260903045819 84 148 2.0 2.0 0.00 0.00 0.00 78 1015.1
20260903045314 84 166 1.0 2.0 0.00 0.00 0.00 78 1014.9
20260903044811 84 182 1.0 2.0 0.00 0.00 0.00 78 1014.9
20260903044306 84 175 0.0 0.0 0.00 0.00 0.00 78 1014.9
20260903043802 84 159 1.0 1.0 0.00 0.00 0.00 78 1015.0
20260903043302 84 162 1.0 1.0 0.00 0.00 0.00 78 1015.0
20260903042801 84 142 1.0 1.0 0.00 0.00 0.00 78 1014.9
20260903042256 84 184 1.0 1.0 0.00 0.00 0.00 78 1015.1
20260903041753 84 163 1.0 1.0 0.00 0.00 0.00 78 1015.1
20260903041249 84 174 1.0 1.0 0.00 0.00 0.00 77 1015.1
20260903040749 85 222 2.0 2.0 0.00 0.00 0.00 77 1014.9
20260903040248 85 183 0.0 1.0 0.00 0.00 0.00 77 1014.9
20260903035745 85 187 1.0 2.0 0.00 0.00 0.00 76 1014.8
20260903035240 85 233 3.0 4.0 0.00 0.00 0.00 76 1014.7
20260903034740 85 184 2.0 3.0 0.00 0.00 0.00 75 1014.7
20260903034235 85 171 0.0 0.0 0.00 0.00 0.00 76 1014.9
20260903033730 85 330 0.0 1.0 0.00 0.00 0.00 75 1014.8
20260903033225 86 265 0.0 1.0 0.00 0.00 0.00 74 1014.8
20260903032720 86 354 0.0 0.0 0.00 0.00 0.00 74 1014.8
20260903032216 86 215 1.0 1.0 0.00 0.00 0.00 73 1014.7
20260903031712 86 168 1.0 1.0 0.00 0.00 0.00 73 1014.5
20260903031211 86 187 2.0 3.0 0.00 0.00 0.00 72 1014.6
20260903030707 86 198 1.0 2.0 0.00 0.00 0.00 73 1014.5
20260903030203 86 187 1.0 1.0 0.00 0.00 0.00 72 1014.6
20260903025657 87 185 1.0 1.0 0.00 0.00 0.00 72 1014.9
20260903025153 87 181 2.0 2.0 0.00 0.00 0.00 72 1014.7
20260903024648 87 162 0.0 1.0 0.00 0.00 0.00 72 1014.9
20260903024147 87 186 1.0 1.0 0.00 0.00 0.00 72 1014.9
20260903023643 87 208 1.0 1.0 0.00 0.00 0.00 71 1014.8
20260903023138 87 166 1.0 2.0 0.00 0.00 0.00 71 1014.8
20260903022637 87 163 2.0 2.0 0.00 0.00 0.00 71 1014.7
20260903022137 87 158 0.0 1.0 0.00 0.00 0.00 71 1014.8
20260903021632 87 249 1.0 1.0 0.00 0.00 0.00 71 1014.8
20260903021131 88 165 0.0 0.0 0.00 0.00 0.00 70 1014.6
20260903020627 88 181 0.0 0.0 0.00 0.00 0.00 69 1014.8
20260903020127 88 141 2.0 3.0 0.00 0.00 0.00 69 1014.5
20260903015623 88 171 2.0 3.0 0.00 0.00 0.00 69 1014.6
20260903015119 88 189 2.0 2.0 0.00 0.00 0.00 68 1014.4
20260903014618 88 142 0.0 0.0 0.00 0.00 0.00 68 1014.5
20260903014118 88 194 1.0 2.0 0.00 0.00 0.00 68 1014.5
20260903013612 88 160 2.0 2.0 0.00 0.00 0.00 68 1014.5
20260903013107 88 152 1.0 1.0 0.00 0.00 0.00 67 1014.3
20260903012606 89 161 0.0 0.0 0.00 0.00 0.00 67 1014.4
20260903012105 89 167 0.0 0.0 0.00 0.00 0.00 67 1014.4
20260903011605 89 146 3.0 4.0 0.00 0.00 0.00 66 1014.3
20260903011105 89 157 3.0 3.0 0.00 0.00 0.00 66 1013.9
20260903010601 89 155 3.0 3.0 0.00 0.00 0.00 66 1014.0
20260903010059 89 169 2.0 2.0 0.00 0.00 0.00 66 1014.1
20260903005559 89 154 2.0 3.0 0.00 0.00 0.00 66 1014.1
20260903005055 90 186 2.0 3.0 0.00 0.00 0.00 66 1013.7
20260903004555 90 166 0.0 1.0 0.00 0.00 0.00 65 1013.9
20260903004051 90 197 4.0 6.0 0.00 0.00 0.00 65 1013.8
20260903003546 90 212 2.0 3.0 0.00 0.00 0.00 64 1013.7
20260903003042 90 192 4.0 6.0 0.00 0.00 0.00 64 1013.9
20260903002537 91 176 3.0 3.0 0.00 0.00 0.00 64 1014.0
20260903002036 91 173 3.0 6.0 0.00 0.00 0.00 63 1013.9
20260903001531 91 202 1.0 2.0 0.00 0.00 0.00 63 1013.8
20260903001031 91 170 1.0 1.0 0.00 0.00 0.00 63 1013.9
20260903000527 91 176 5.0 7.0 0.00 0.00 0.00 62 1014.0
20260903000026 91 161 4.0 4.0 0.00 0.00 0.00 62 1014.0
20260902235526 91 213 3.0 4.0 0.00 0.00 0.00 62 1014.0
20260902235021 92 157 5.0 7.0 0.00 0.00 0.00 62 1014.2
20260902234521 92 189 4.0 7.0 0.00 0.00 0.00 61 1014.0
20260902234019 92 159 2.0 3.0 0.00 0.00 0.00 61 1013.9
20260902233514 93 190 2.0 2.0 0.00 0.00 0.00 60 1014.1
20260902233009 93 174 1.0 2.0 0.00 0.00 0.00 59 1014.1
20260902232508 93 246 2.0 3.0 0.00 0.00 0.00 58 1013.8
20260902232003 93 236 4.0 6.0 0.00 0.00 0.00 57 1013.9
20260902231457 94 178 3.0 3.0 0.00 0.00 0.00 56 1014.0
20260902230952 94 180 3.0 4.0 0.00 0.00 0.00 55 1014.0
20260902230451 94 235 2.0 3.0 0.00 0.00 0.00 55 1014.0
20260902225950 94 216 4.0 4.0 0.00 0.00 0.00 54 1013.9
20260902225446 95 323 2.0 3.0 0.00 0.00 0.00 53 1014.1
20260902224945 95 165 2.0 3.0 0.00 0.00 0.00 53 1014.0
20260902224444 95 164 4.0 4.0 0.00 0.00 0.00 53 1014.1
20260902223941 95 155 1.0 2.0 0.00 0.00 0.00 54 1014.1
20260902223436 96 175 4.0 6.0 0.00 0.00 0.00 51 1014.0
20260902222936 96 261 2.0 2.0 0.00 0.00 0.00 50 1014.1
20260902222434 96 283 2.0 2.0 0.00 0.00 0.00 50 1014.2
20260902221934 97 236 5.0 8.0 0.00 0.00 0.00 49 1014.1
20260902221433 96 24 2.0 2.0 0.00 0.00 0.00 51 1014.1
20260902220930 97 288 4.0 6.0 0.00 0.00 0.00 49 1014.3
20260902220429 97 281 0.0 1.0 0.00 0.00 0.00 49 1014.2
20260902215924 96 245 4.0 4.0 0.00 0.00 0.00 49 1014.1
20260902215420 96 228 2.0 3.0 0.00 0.00 0.00 49 1014.3
20260902214916 96 165 3.0 6.0 0.00 0.00 0.00 48 1014.2
20260902214414 97 262 2.0 2.0 0.00 0.00 0.00 47 1014.3
20260902213909 97 271 2.0 3.0 0.00 0.00 0.00 46 1014.4
20260902213405 97 228 1.0 2.0 0.00 0.00 0.00 47 1014.4